Bowling Green, KY

9:25 AM CDT on September 16, 2019 (GMT -0500)
Bowling Green-Warren County Regional

Weather History for KBWG - August, 2019

Change the Weather History Date:

Saturday, August 24, 2019

  Actual Average Record
Temperature  
Mean Temperature 76 °F 77 °F  
Max Temperature 85 °F 88 °F 103 °F (1943)
Min Temperature 67 °F 65 °F 50 °F (1923)
Degree Days  
Heating Degree Days 0 0  
Month to date heating degree days 0 0  
Since 1 June heating degree days 0 5  
Since 1 July heating degree days 0 0  
Cooling Degree Days 11 12  
Month to date cooling degree days 369 308  
Year to date cooling degree days 1404 1189  
Since 1 June cooling degree days 1138 1036  
Growing Degree Days 25 (Base 50)    
Moisture  
Dew Point 60 °F    
Average Humidity 65    
Maximum Humidity 81    
Minimum Humidity 48    
Precipitation  
Precipitation 0.00 in 0.12 in 3.28 in (1922)
Month to date precipitation 2.93 2.52  
Year to date precipitation 39.97 32.75  
Snow  
Snow 0.00 in 0.00 in 0.00 in ()
Month to date snowfall 0.0 0.0  
Since 1 June snowfall 0.0 0.0  
Since 1 July snowfall 0.0 0.0  
Snow Depth 0.00 in    
Sea Level Pressure  
Sea Level Pressure 30.08 in    
Wind  
Wind Speed 8 mph (NE)    
Max Wind Speed 16 mph    
Max Gust Speed 22 mph    
Visibility 10 miles    
Events      
T = Trace of Precipitation, MM = Missing Value Source: NWS Daily Summary

Daily Weather History Graph

Daily Weather History Graph

Search for Another Location

Airport or City:

Astronomy

Aug. 24, 2019 Rise Set
Actual Time 6:09 AM CDT 7:25 PM CDT
Civil Twilight 5:42 AM CDT 7:52 PM CDT
Nautical Twilight 5:10 AM CDT 8:24 PM CDT
Astronomical Twilight 4:36 AM CDT 8:58 PM CDT
Moon 12:05 AM CDT (8/24) 2:37 PM CDT (8/24)
Length of Visible Light 14h 09m
Length of Day
13h 15m
Last Quarter, 39% of the Moon is Illuminated
Aug 24
Last Quarter
Aug 30
New
Sep 5
First Quarter
Sep 13
Full
Sep 21
Last Quarter

Hourly Weather History & Observations

Time (CDT) Temp. Heat Index Dew Point Humidity Pressure Visibility Wind Dir Wind Speed Gust Speed Precip Events Conditions
12:48 AM 69.8 °F - 57.2 °F 64% 30.10 in 10.0 mi ENE 6.9 mph - N/A   Mostly Cloudy
12:53 AM 69.1 °F - 57.9 °F 68% 30.09 in 10.0 mi NE 6.9 mph - N/A   Mostly Cloudy
1:53 AM 69.1 °F - 59.0 °F 70% 30.08 in 10.0 mi NE 6.9 mph - N/A   Scattered Clouds
2:09 AM 69.1 °F - 59.0 °F 70% 30.09 in 10.0 mi NE 8.1 mph - N/A   Mostly Cloudy
2:26 AM 69.1 °F - 59.0 °F 70% 30.09 in 10.0 mi NE 8.1 mph - N/A   Scattered Clouds
2:53 AM 68.0 °F - 59.0 °F 73% 30.07 in 10.0 mi NE 6.9 mph - N/A   Clear
3:53 AM 68.0 °F - 59.0 °F 73% 30.08 in 10.0 mi NE 6.9 mph - N/A   Clear
4:53 AM 68.0 °F - 60.1 °F 76% 30.09 in 10.0 mi NNE 6.9 mph - N/A   Clear
5:53 AM 66.9 °F - 60.1 °F 79% 30.10 in 10.0 mi NE 5.8 mph - N/A   Clear
6:53 AM 66.9 °F - 60.1 °F 79% 30.11 in 10.0 mi NNE 8.1 mph - N/A   Clear
7:53 AM 69.1 °F - 59.0 °F 70% 30.12 in 10.0 mi NE 9.2 mph - N/A   Clear
8:53 AM 73.0 °F - 59.0 °F 61% 30.12 in 10.0 mi ENE 11.5 mph - N/A   Clear
9:53 AM 73.0 °F - 57.9 °F 59% 30.12 in 10.0 mi ENE 12.7 mph - N/A   Clear
10:53 AM 77.0 °F - 60.1 °F 56% 30.12 in 10.0 mi East 11.5 mph - N/A   Clear
11:53 AM 79.0 °F - 61.0 °F 54% 30.10 in 10.0 mi East 8.1 mph - N/A   Clear
12:53 PM 82.0 °F 83.1 °F 63.0 °F 52% 30.09 in 10.0 mi ENE 12.7 mph - N/A   Clear
1:53 PM 82.9 °F 84.0 °F 63.0 °F 51% 30.07 in 10.0 mi NE 12.7 mph 19.6 mph N/A   Clear
2:53 PM 84.0 °F 84.5 °F 62.1 °F 47% 30.06 in 10.0 mi NE 10.4 mph - N/A   Partly Cloudy
3:53 PM 84.0 °F 84.5 °F 62.1 °F 47% 30.03 in 10.0 mi NE 8.1 mph - N/A   Clear
4:53 PM 82.9 °F 83.7 °F 62.1 °F 49% 30.03 in 10.0 mi NE 12.7 mph 19.6 mph N/A   Clear
5:53 PM 82.0 °F 83.0 °F 62.1 °F 51% 30.03 in 10.0 mi ENE 9.2 mph - N/A   Clear
6:53 PM 80.1 °F 81.1 °F 61.0 °F 52% 30.03 in 10.0 mi ENE 6.9 mph - N/A   Clear
7:53 PM 77.0 °F - 60.1 °F 56% 30.05 in 10.0 mi NE 6.9 mph - N/A   Clear
8:53 PM 75.0 °F - 59.0 °F 57% 30.06 in 10.0 mi NE 6.9 mph - N/A   Clear
9:53 PM 72.0 °F - 57.0 °F 59% 30.06 in 10.0 mi NE 8.1 mph - N/A   Clear
10:53 PM 71.1 °F - 57.0 °F 61% 30.07 in 10.0 mi ENE 6.9 mph - N/A   Clear
11:53 PM 69.1 °F - 57.9 °F 68% 30.06 in 10.0 mi NE 3.5 mph - N/A   Clear